Satellite-Ground Cal/Val Region Overpasses Predictions

Prediction of Satellite NPP Overpassing Cal/Val Region: PacNW

Region Location: (Latitude: 10.00, Longitude: 139.50) to (Latitude: 22.70, Longitude: 165.60).

Table of predicted overpasses for the next 14.0 days since TLE Epoch: 1/12/2018
Interval Starting Time Starting Location Ending Time Ending Location
1 01/13/2018 02:52:06 ( 10.01, 156.67) 01/13/2018 02:55:42 ( 22.69, 153.65)
2 01/13/2018 15:23:59 ( 22.70, 153.90) 01/13/2018 15:27:35 ( 10.02, 150.88)
3 01/14/2018 02:33:04 ( 10.01, 161.42) 01/14/2018 02:36:40 ( 22.69, 158.41)
4 01/14/2018 15:04:56 ( 22.70, 158.66) 01/14/2018 15:08:32 ( 10.02, 155.64)
5 01/15/2018 02:14:45 ( 12.60, 165.59) 01/15/2018 02:17:37 ( 22.69, 163.17)
6 01/15/2018 03:55:31 ( 10.02, 140.81) 01/15/2018 03:57:07 ( 15.66, 139.50)
7 01/15/2018 14:45:54 ( 22.70, 163.42) 01/15/2018 14:49:30 ( 10.02, 160.40)
8 01/16/2018 03:36:29 ( 10.02, 145.57) 01/16/2018 03:40:04 ( 22.64, 142.57)
9 01/16/2018 14:29:56 ( 11.90, 165.59) 01/16/2018 14:30:28 ( 10.02, 165.16)
10 01/16/2018 16:08:22 ( 22.69, 142.80) 01/16/2018 16:11:58 ( 10.01, 139.79)
11 01/17/2018 03:17:26 ( 10.02, 150.33) 01/17/2018 03:21:01 ( 22.65, 147.33)
12 01/17/2018 15:49:19 ( 22.69, 147.56) 01/17/2018 15:52:55 ( 10.01, 144.55)
13 01/18/2018 02:58:24 ( 10.02, 155.09) 01/18/2018 03:01:59 ( 22.65, 152.09)
14 01/18/2018 15:30:17 ( 22.69, 152.32) 01/18/2018 15:33:53 ( 10.01, 149.31)
15 01/19/2018 02:39:21 ( 10.03, 159.85) 01/19/2018 02:42:56 ( 22.65, 156.84)
16 01/19/2018 15:11:14 ( 22.69, 157.08) 01/19/2018 15:14:50 ( 10.01, 154.07)
17 01/20/2018 02:20:19 ( 10.03, 164.61) 01/20/2018 02:23:54 ( 22.65, 161.60)
18 01/20/2018 14:52:12 ( 22.69, 161.84) 01/20/2018 14:55:48 ( 10.01, 158.82)
19 01/21/2018 03:42:46 ( 10.04, 143.99) 01/21/2018 03:46:21 ( 22.66, 140.99)
20 01/21/2018 14:34:19 ( 18.58, 165.59) 01/21/2018 14:36:45 ( 10.00, 163.58)
21 01/21/2018 16:14:39 ( 22.68, 141.22) 01/21/2018 16:16:40 ( 15.58, 139.50)
22 01/22/2018 03:23:44 ( 10.04, 148.75) 01/22/2018 03:27:19 ( 22.66, 145.75)
23 01/22/2018 15:55:37 ( 22.67, 145.98) 01/22/2018 15:59:12 ( 10.05, 142.98)
24 01/23/2018 03:04:41 ( 10.04, 153.51) 01/23/2018 03:08:16 ( 22.66, 150.51)
25 01/23/2018 15:36:34 ( 22.67, 150.74) 01/23/2018 15:40:09 ( 10.05, 147.74)
26 01/24/2018 02:45:39 ( 10.04, 158.27) 01/24/2018 02:49:14 ( 22.67, 155.26)
27 01/24/2018 15:17:32 ( 22.67, 155.50) 01/24/2018 15:21:07 ( 10.05, 152.50)
28 01/25/2018 02:26:37 ( 10.05, 163.03) 01/25/2018 02:30:12 ( 22.67, 160.02)
29 01/25/2018 14:58:29 ( 22.67, 160.26) 01/25/2018 15:02:04 ( 10.05, 157.26)
30 01/26/2018 02:10:13 ( 19.39, 165.59) 01/26/2018 02:11:09 ( 22.67, 164.78)
31 01/26/2018 03:49:04 ( 10.06, 142.41) 01/26/2018 03:52:32 ( 22.27, 139.51)
32 01/26/2018 14:39:27 ( 22.66, 165.02) 01/26/2018 14:43:02 ( 10.04, 162.02)


NCC Satellite Cal/Val Overpasses Prediction Service
